Regional Weather Roundup
Issued by NWS

Home | Current Version | Previous Version | Graphics & Text | Print | Product List | Glossary On
Versions: 1 2 3 4 5 6 7 8 9 10 11 12 13 14 15 16 17 18 19 20 21 22 23 24 25 26 27 28 29 30 31 32 33 34 35 36 37 38 39 40 41 42 43 44 45 46 47 48 49 50
000
ASUS43 KOAX 191910
RWRNE

WEATHER ROUNDUP FOR NEBRASKA
NATIONAL WEATHER SERVICE OMAHA NE
200 PM CDT TUE SEP 19 2017

NOTES: SATELLITE DATA IS BEING USED TO AUGMENT CLOUD COVER ABOVE
       12000 FEET.
       "FAIR" INDICATES FEW OR NO CLOUDS BELOW 12,000 FEET WITH NO
       SIGNIFICANT WEATHER AND/OR OBSTRUCTIONS TO VISIBILITY.


NEZ001>004-019>022-054>056-192000-
NEBRASKA PANHANDLE

CITY           SKY/WX    TMP DP  RH WIND       PRES   REMARKS
SCOTTSBLUFF    CLOUDY    74  50  42 SE7       29.57F
ALLIANCE       CLOUDY    73  53  49 S8        29.57F
CHADRON        CLOUDY    79  38  22 VRB6      29.52F
GORDON         FAIR      73  55  53 SW6       29.56F
KIMBALL        CLOUDY    83  30  14 W16       29.63F
SIDNEY         CLOUDY    81  36  19 SW10      29.61F
$$

NEZ057>060-069>072-079>082-192000-
SOUTHWEST NEBRASKA

CITY           SKY/WX    TMP DP  RH WIND       PRES   REMARKS
NORTH PLATTE   CLOUDY    86  59  39 S12       29.55F
IMPERIAL       CLOUDY    84  41  21 CALM      29.58F
LEXINGTON      CLOUDY    86  60  40 S18G24    29.57F
MCCOOK         CLOUDY    90  53  28 S15       29.55F
OGALLALA       CLOUDY    80  47  31 S7        29.57F
$$

NEZ005>010-023>029-035>040-094-192000-
NORTH CENTRAL NEBRASKA

CITY           SKY/WX    TMP DP  RH WIND       PRES   REMARKS
VALENTINE      CLOUDY    78  62  57 S15G24    29.53F
AINSWORTH      CLOUDY    75  65  69 S16G23    29.55F
BROKEN BOW     MOSUNNY   83  63  50 S20G28    29.56F
O`NEILL        CLOUDY    80  67  66 SE24G33   29.55F
ORD            CLOUDY    82  64  54 S20G28    29.55F
THEDFORD       CLOUDY    79  61  54 S14       29.56F
$$

NEZ041-046>049-061>064-073>077-083>087-192000-
SOUTH CENTRAL NEBRASKA

CITY           SKY/WX    TMP DP  RH WIND       PRES   REMARKS
GRAND ISLAND   SUNNY     85  68  56 S20G31    29.60F
AURORA         SUNNY     85  66  52 S24G30    29.60F
HASTINGS       SUNNY     87  62  43 S18G30    29.61F
HEBRON         SUNNY     89  66  46 S18G26    29.64F HX  92
HOLDREGE       CLOUDY    86  57  36 S21G28    29.58F
KEARNEY        SUNNY     87  64  46 S24       29.59F
YORK           SUNNY     86  68  54 S16G26    29.63F
$$

NEZ011>018-030>034-042>045-192000-
NORTHEAST NEBRASKA

CITY           SKY/WX    TMP DP  RH WIND       PRES   REMARKS
NORFOLK        CLOUDY    82  68  62 SE22G28   29.59F
ALBION         CLOUDY    83  69  62 SE18G26   29.60F
BLAIR          SUNNY     85  70  61 SE17G25   29.69F
COLUMBUS       MOSUNNY   87  69  54 SE18G26   29.62F HX  91
FREMONT        SUNNY     84  68  58 SE16G25   29.65F
TEKAMAH        SUNNY     84  68  58 SE20G26   29.66F
WAYNE          MOSUNNY   81  71  71 SE20G25   29.63F
$$

NEZ050>053-065>068-078-088>093-192000-
SOUTHEAST NEBRASKA

CITY           SKY/WX    TMP DP  RH WIND       PRES   REMARKS
LINCOLN        SUNNY     90  67  46 SE25G31   29.65F HX  93
OMAHA EPPLEY   MOSUNNY   86  67  52 SE26G35   29.69F
BEATRICE       SUNNY     90  68  48 S20G29    29.66F HX  94
FALLS CITY     SUNNY     88  68  51 S18G26    29.71F HX  91
NEBRASKA CITY  SUNNY     86  70  59 SE15G23   29.70F HX  91
PLATTSMOUTH    SUNNY     86  68  55 SE20G26   29.69F HX  90
$$

NEZ044-045-051>053-067-192000-
OMAHA AREA

CITY           SKY/WX    TMP DP  RH WIND       PRES   REMARKS
OMAHA EPPLEY   MOSUNNY   86  67  52 SE26G35   29.69F
BLAIR          SUNNY     85  70  61 SE17G25   29.69F
FREMONT        SUNNY     84  68  58 SE16G25   29.65F
MILLARD        SUNNY     87  70  57 SE17G24   29.67F HX  92
OFFUTT AFB     SUNNY     87  68  54 SE21G31   29.68F HX  90
PLATTSMOUTH    SUNNY     86  68  55 SE20G26   29.69F HX  90
WAHOO          FAIR      86  66  51 SE21G30   29.65F
$$




USA.gov is the U.S. government's official web portal to all federal, state and local government web resources and services.